Location: Kitchener
(43.4500°N, 80.5000°W)
Time: 09:06:57
(UTC-05:00)

Daily predictions for brighter satellites

Satellite Brightness Start Highest point End
(mag) Time Altitude Azimuth Time Altitude Azimuth Time Altitude Azimuth
Cosmos 1825 4.3 17:16:26 10° NNW 17:19:50 31° W 17:23:13 10° SSW
USA 161 2.3 17:24:13 10° N 17:25:59 33° WNW 17:27:52 10° SW
COSMOS 2441 4.5 17:21:26 10° SSE 17:26:19 86° WSW 17:31:15 10° NNW
SMAP 3.2 17:22:49 10° SSE 17:27:18 51° ENE 17:31:49 10° N
Cosmos 1763 Rocket 3.8 17:22:57 10° N 17:27:59 45° ENE 17:32:55 10° SE
Cosmos 2233 Rocket 4.3 17:22:57 10° SSE 17:28:50 45° E 17:34:43 10° NNE
Cosmos 1908 Rocket 4.4 17:25:27 10° NNE 17:29:11 27° ENE 17:32:53 10° SE
Cosmos 1733 Rocket 3.0 17:27:13 10° N 17:31:39 69° E 17:36:04 10° SSE
ERS-2 3.4 17:28:54 10° ESE 17:31:45 21° ENE 17:34:36 10° NNE
Cosmos 1844 Rocket 2.9 17:28:39 10° SSW 17:34:17 75° WNW 17:39:56 10° NNE
AQUARIUS 4.2 17:31:13 10° SSE 17:35:38 60° ENE 17:40:05 10° N
Cosmos 2242 Rocket 3.6 17:31:48 10° S 17:36:21 82° E 17:40:54 10° N
Cosmos 1346 4.2 17:34:58 10° SW 17:37:03 32° WNW 17:39:10 10° N
ATLAS 3B R/B 4.5 17:31:36 10° W 17:37:04 23° NNW 17:42:22 10° NNE
COSMOS 2406 3.6 17:31:45 10° NNW 17:37:29 71° WSW 17:43:08 10° SSE
Cosmos 1814 Rocket 4.0 17:34:30 10° NNW 17:39:50 64° ENE 17:45:09 10° SSE
CZ-2C R/B 3.7 17:35:15 10° S 17:40:02 47° W 17:45:00 10° NNW
Sich 1 Rocket 4.3 17:37:16 10° NNE 17:41:12 31° ENE 17:45:09 10° SE
Meteor 1-14 Rocket 4.3 17:37:18 10° N 17:42:53 54° ENE 17:48:19 10° SSE
Cosmos 1862 Rocket 3.5 17:38:56 10° S 17:43:19 74° E 17:47:48 10° NNE
CZ-4C R/B 3.8 17:39:30 10° NNW 17:45:02 25° NNE 17:50:24 12° E
SL-27 R/B 3.3 17:44:14 10° N 17:47:06 26° ENE 17:49:58 10° ESE
IRS-1A Rocket 4.3 17:45:16 10° SSE 17:51:00 63° ENE 17:56:39 10° N
CSL-04 Debris 4.3 17:47:32 10° SSE 17:52:59 81° WSW 17:58:25 10° NNW
Ariane Rocket 3.2 17:49:56 10° S 17:55:00 77° WSW 18:00:07 10° NNW
FENGYUN 3A 4.4 17:50:55 10° SE 17:55:35 31° ENE 18:00:16 10° N
Cosmos 540 Rocket 4.1 17:52:46 10° N 17:57:27 33° ENE 18:02:05 10° SE
USA 234 3.8 17:52:30 13° ENE 17:57:51 40° SE 18:03:53 10° SSW
COSMOS 2455 2.9 17:53:11 10° SSW 17:59:12 82° WNW 18:05:16 10° NNE
Cosmos 1833 Rocket 3.2 17:56:18 10° N 18:01:32 38° ENE 18:06:44 10° SE
Okean 1-7 3.8 17:58:41 10° SSE 18:02:31 30° E 18:06:16 11° NNE
Cosmos 841 Rocket 3.4 17:57:22 10° NNW 18:02:40 68° ENE 18:07:53 10° SSE
Timation 1 Rocket 4.3 17:57:12 10° SSW 18:03:12 88° ESE 18:09:15 10° NNE
CZ-4 R/B 4.5 17:59:13 10° SSE 18:03:18 58° ENE 18:07:24 10° N
Cosmos 1844 4.3 17:57:51 10° SW 18:03:32 59° WNW 18:09:17 10° NNE
Meteor 1-26 Rocket 4.2 17:58:07 10° S 18:03:43 89° W 18:09:16 10° N
Cosmos 1633 3.1 18:00:32 10° N 18:03:58 36° ENE 18:07:22 10° SE
MTI 4.0 18:02:52 13° NNE 18:05:32 45° E 18:08:38 10° S
CZ-4 R/B 1.4 18:04:15 10° S 18:08:07 77° WSW 18:11:59 10° NNW
Lacrosse 5 3.6 18:04:15 10° WNW 18:08:12 22° NNW 18:11:48 11° NNE
Cosmos 2278 Rocket 2.1 18:03:04 10° SSW 18:08:44 79° ESE 18:14:26 10° NNE
Cosmos 1486 Rocket 3.9 18:05:01 10° S 18:10:10 70° ESE 18:15:25 10° NNE
Cosmos 44 Rocket 4.2 18:07:16 10° NNW 18:11:28 28° NE 18:13:11 23° ENE
Cosmos 1782 Rocket 3.7 18:09:30 10° N 18:13:42 47° ENE 18:17:54 10° SSE
MOS 1 4.2 18:10:03 10° SSE 18:15:41 66° ENE 18:21:21 10° N
COSMO-SKYMED 1 2.6 18:14:26 10° NNE 18:18:43 57° E 18:22:59 10° S
YAOGAN 1 2.6 18:16:21 10° SSE 18:20:40 82° WSW 18:25:02 10° NNW
Cosmos 304 Rocket 4.3 18:17:28 10° NNW 18:22:13 60° WSW 18:26:55 10° S
USA 116 4.2 18:18:29 10° N 18:23:05 71° WNW 18:27:05 10° SSW
Meteor 1-28 Rocket 3.8 18:19:28 10° N 18:23:06 55° WNW 18:26:43 10° SSW
CZ-2C R/B 4.0 18:20:13 10° N 18:24:41 69° WNW 18:29:10 10° SSW
Cosmos 292 Rocket 4.3 18:20:51 10° N 18:25:12 34° ENE 18:26:25 30° E
SPOT 3 Rocket 3.5 18:20:08 10° SSE 18:25:17 63° ENE 18:30:27 10° N
Cosmos 1354 Rocket 4.2 18:21:33 10° S 18:26:37 50° ESE 18:29:48 22° NE
BREEZE-M DEB (TANK) 2.2 18:25:36 10° SW 18:27:40 51° SE 18:27:47 50° SE
Cosmos 1606 2.5 18:25:21 10° S 18:29:06 76° E 18:32:00 16° NNE
MONITOR-E 3.9 18:26:15 10° SSE 18:29:17 80° ENE 18:32:22 10° N
Cosmos 2034 Rocket 4.3 18:23:44 10° SSE 18:29:41 43° E 18:35:38 10° NNE
Cosmos 2221 Rocket 3.5 18:28:52 10° S 18:33:11 60° E 18:36:17 19° NNE
EO 1 Del DPAF 3.1 18:30:33 17° NNE 18:33:26 82° ESE 18:37:15 10° SSW
Landsat 4 4.3 18:30:15 10° N 18:33:59 58° WNW 18:37:42 10° SSW
NOAA 12 4.0 18:35:03 10° SSE 18:40:21 75° ENE 18:45:40 10° N
Meteor 2-6 Rocket 4.0 18:35:54 10° S 18:41:16 68° E 18:46:48 10° NNE
CENTAUR R/B 3.8 18:36:16 10° WSW 18:42:00 36° NW 18:48:01 12° NNE
Cosmos 1703 Rocket 3.9 18:38:20 10° SSW 18:42:47 68° W 18:47:15 10° N
Cosmos 44 3.3 18:39:57 10° NNW 18:44:31 52° NE 18:45:15 47° E
Cosmos 1782 3.0 18:41:35 10° SSW 18:45:36 71° W 18:49:00 14° N
Cosmos 2082 Rocket 2.1 18:41:53 10° NNW 18:47:37 82° ENE 18:53:16 10° SSE
BREEZE-M DEB (TANK) 4.1 18:48:17 10° WNW 18:50:25 33° NNW 18:50:25 33° NNW
Meteor 2-20 4.3 18:45:19 10° N 18:51:21 62° E 18:57:20 10° SSE
Okean 2 Rocket 3.0 18:48:15 10° N 18:52:49 81° E 18:57:20 10° S
ALOS 2.3 18:50:37 10° S 18:55:17 79° WSW 18:59:59 10° NNW
Thor Agena Rocket 4.1 18:59:06 38° SE 18:59:06 38° SE 19:02:43 10° S
Cosmos 1464 Rocket 3.9 18:52:21 10° S 18:58:28 85° W 19:04:40 10° N
FengYun 1-2 T 4.2 18:55:41 20° SE 18:59:24 60° ENE 19:04:53 10° N
Cosmos 405 Rocket 3.5 18:56:24 10° S 18:58:56 40° S 18:58:56 40° S
ERS-2 4.4 19:02:09 10° SSW 19:05:18 26° W 19:08:27 10° NW
Meteor 1-27 Rocket 3.7 19:02:13 10° S 19:08:04 73° E 19:11:10 30° NNE
BREEZE-M R/B 4.3 19:19:40 10° W 19:22:38 33° SSW 19:22:52 33° SSW
Meteor 2-20 Rocket 4.4 19:28:25 10° N 19:34:32 79° W 19:40:36 10° S
CZ-4C R/B 2.7 19:27:32 10° NW 19:34:41 78° NE 19:35:39 69° ESE
USA 234 3.4 19:39:52 56° NNE 19:41:04 66° NW 19:47:31 10° WSW
Meteor 1-11 Rocket 4.4 19:39:29 10° NNW 19:45:11 53° W 19:50:43 10° S
Cosmos 1833 Rocket 4.2 19:40:23 10° NW 19:45:23 34° WSW 19:50:21 10° SSW
Lacrosse 5 4.2 19:49:22 10° NW 19:51:00 15° NNW 19:51:00 15° NNW
Cosmos 2278 Rocket 4.5 19:49:30 10° W 19:53:30 19° NW 19:56:45 13° N
